Wind_Speed
35 35 39 43 46 44 41 41 39 36 35 36 39 42 43 44 45 47 49 48 48 47 47 46 47 48 48 47 46 45 44 43 40 38 36 34 34 35 36 39 42 43
37 37 40 45 47 45 43 42 40 37 35 37 39 42 45 46 45 45 46 46 47 46 45 45 46 48 49 49 49 47 44 41 37 35 37 37 37 38 41 44 44 43
40 37 40 44 46 45 44 44 42 38 37 39 41 43 43 44 43 42 41 41 44 46 46 46 46 46 46 45 44 42 38 37 36 36 38 40 41 43 45 46 46 45
40 37 39 42 44 44 43 44 43 40 39 40 40 40 40 40 41 43 43 41 42 45 47 48 49 48 47 45 41 39 37 38 40 41 41 43 45 46 47 49 50 51
40 39 40 41 44 44 44 44 44 42 41 41 41 40 40 40 40 42 46 44 40 41 44 47 49 51 50 47 45 44 44 45 46 46 46 47 49 49 50 51 53 53
41 39 40 42 43 45 46 47 45 43 41 41 43 42 40 40 40 41 45 45 42 40 41 43 45 47 49 49 49 49 48 49 49 49 48 48 48 48 49 50 51 51
40 37 39 42 43 43 45 48 47 43 40 40 41 40 38 39 41 42 44 46 46 45 45 44 43 44 45 46 47 47 47 48 47 45 44 43 43 44 45 46 47 46
40 37 38 41 41 40 40 45 46 42 39 40 41 40 39 40 43 45 46 46 46 46 46 46 46 46 44 44 44 44 43 42 41 40 39 40 42 44 45 45 45 43
43 40 39 39 39 39 38 40 41 40 39 41 42 40 40 42 46 49 50 50 48 47 45 44 46 46 43 42 41 40 39 38 39 40 41 42 44 45 45 45 45 43
46 42 41 38 37 37 38 38 38 38 40 41 41 41 40 42 46 50 52 52 52 51 49 48 48 46 43 40 39 38 38 39 41 42 43 44 45 45 45 44 43 41
49 45 44 41 36 35 38 38 38 39 41 42 43 43 43 43 45 48 50 51 52 51 49 49 49 47 44 41 39 39 40 41 41 42 43 44 44 44 43 42 41 39
54 49 47 45 41 38 37 35 35 38 40 41 43 43 42 43 43 44 45 47 48 47 47 46 46 45 43 41 40 40 41 41 42 43 44 44 44 44 43 41 40 38
56 52 49 49 46 43 39 34 33 37 40 40 41 41 41 41 41 40 41 41 40 41 42 42 41 41 40 40 40 40 40 41 42 42 43 43 43 43 42 41 39 38
56 53 51 51 48 45 44 40 36 38 40 41 41 40 40 40 40 41 40 39 37 37 37 37 37 37 37 37 37 38 39 39 41 41 42 42 41 41 40 40 38 38
53 52 52 52 51 48 47 46 42 38 39 42 43 40 40 40 41 42 43 42 40 39 36 35 34 34 34 35 36 36 36 37 37 38 39 40 40 40 39 39 38 38
53 52 52 52 51 48 46 45 44 41 39 41 42 42 41 41 42 43 43 41 40 39 38 36 35 36 36 37 37 36 36 36 36 37 38 39 40 40 40 38 37 38
53 52 51 51 49 46 43 41 42 43 42 42 44 44 43 40 39 40 41 40 39 38 37 36 36 37 38 38 38 37 37 37 39 40 41 40 40 40 39 38 37 37
51 50 49 49 49 47 43 40 40 41 41 42 45 45 44 41 39 38 39 40 40 38 37 36 35 35 36 37 38 38 38 39 40 41 42 41 40 39 38 37 37 37
49 49 48 46 48 47 45 43 44 43 42 43 46 46 45 44 43 42 42 41 41 39 39 39 39 38 38 38 38 38 37 38 39 40 40 40 39 38 38 38 38 37
48 49 48 46 45 44 44 45 47 47 46 46 47 48 48 46 45 45 45 43 41 41 41 43 44 45 45 45 44 42 41 40 40 40 40 41 40 40 39 39 39 39
50 49 49 48 45 42 44 46 47 47 47 48 49 49 49 49 47 46 45 44 42 42 43 44 46 47 49 49 48 48 48 47 46 45 43 43 43 42 42 42 42 42
53 52 51 50 48 47 48 49 49 48 47 48 52 51 49 50 51 50 50 48 46 45 45 45 46 47 48 48 48 49 50 49 48 47 45 45 45 45 45 45 44 45
55 56 55 53 52 51 53 53 52 51 49 49 52 52 50 51 52 53 54 51 48 46 46 45 47 48 48 47 47 47 48 47 46 46 47 47 48 48 48 47 47 48
58 58 58 58 56 53 53 55 55 55 54 54 53 51 49 50 51 52 53 51 47 47 47 46 47 48 47 47 47 47 48 49 50 50 50 50 50 50 50 49 49 50
62 61 59 60 60 57 53 53 56 56 56 56 55 52 49 49 51 51 50 48 46 46 47 48 50 50 49 49 50 51 52 54 54 54 53 52 52 51 51 51 51 51
65 65 63 61 62 61 58 54 54 55 55 55 55 54 51 49 50 50 48 46 46 46 46 47 50 51 50 51 53 55 56 57 58 57 56 54 52 51 51 51 51 51
Wind_Direction
243 243 239 236 239 243 247 249 249 249 248 241 236 236 238 242 246 249 251 251 251 250 249 250 250 251 254 256 261 267 270 273 277 281 284 286 287 286 285 288 291 293
240 241 238 234 235 238 242 244 242 243 242 237 233 235 238 242 245 249 253 254 254 254 253 254 254 255 256 258 261 266 270 276 280 283 284 284 285 286 288 289 290 290
232 235 235 233 233 234 236 237 238 240 240 237 234 235 239 243 243 244 248 252 253 253 253 255 257 259 261 264 266 268 271 276 276 275 277 280 282 285 287 287 288 289
225 228 230 229 230 231 232 234 235 238 239 236 235 237 241 247 247 244 245 250 253 253 252 253 255 258 262 266 267 266 266 268 268 268 270 274 278 281 283 285 287 289
221 224 227 227 229 230 232 233 234 238 241 236 232 234 238 243 247 247 246 248 251 252 250 251 253 256 259 261 262 263 264 264 266 268 270 272 275 278 281 283 285 287
222 226 229 230 230 229 230 232 233 238 243 239 233 235 239 242 247 248 245 243 244 247 249 251 253 254 256 257 259 262 264 265 268 270 273 275 276 277 279 281 283 285
227 230 230 231 231 229 229 230 232 237 241 241 239 241 246 248 248 247 245 242 242 246 251 254 254 255 256 258 260 262 264 266 269 271 273 275 276 278 280 281 283 284
229 229 229 231 232 232 231 230 232 236 239 242 245 247 250 250 247 245 245 246 246 248 252 254 254 255 257 259 260 262 264 267 269 271 273 275 277 279 280 281 282 282
229 229 230 232 232 233 234 234 234 236 239 244 247 249 251 252 248 246 247 249 252 254 254 253 254 255 258 259 260 263 266 268 270 272 274 275 277 278 280 281 281 281
230 231 232 233 235 235 235 236 238 241 244 247 247 247 251 254 253 251 250 249 251 254 256 256 257 259 261 262 264 266 267 268 270 271 273 274 275 277 278 279 279 281
229 231 230 229 232 235 235 238 243 246 249 249 249 249 251 252 252 253 253 252 252 254 257 259 260 261 264 265 266 267 267 268 269 270 272 273 274 275 276 277 278 279
227 229 227 224 225 227 228 233 240 242 241 242 245 247 248 249 249 250 253 254 255 256 257 258 259 261 263 264 264 265 266 267 269 270 271 272 273 274 274 275 276 278
227 229 228 224 223 222 221 222 230 235 234 234 237 239 242 246 247 247 250 254 255 255 255 255 257 258 259 260 261 263 265 267 269 270 271 271 272 272 273 274 275 276
226 228 227 224 224 224 222 221 224 232 236 237 238 238 240 245 248 248 251 255 257 257 255 255 256 256 256 258 260 263 266 267 269 270 270 270 271 271 272 273 274 275
222 224 224 223 225 226 225 224 225 230 236 240 242 244 245 247 250 252 253 257 262 262 260 258 259 258 258 260 261 263 265 267 268 269 270 270 271 271 272 272 273 274
220 220 221 223 225 228 227 225 228 232 236 238 243 247 249 251 252 254 255 259 262 263 263 264 265 264 264 264 262 262 263 265 265 266 267 268 269 270 271 272 273 272
221 220 220 221 223 225 225 225 229 234 237 239 242 246 249 252 254 255 256 259 261 262 265 269 270 268 267 265 262 261 261 261 262 262 264 266 267 269 270 271 271 271
224 221 221 222 223 223 223 223 228 233 236 240 243 247 250 252 254 255 257 259 261 263 265 268 270 269 267 263 261 261 260 260 260 261 262 264 266 268 270 270 270 270
225 224 223 225 227 226 224 226 230 233 236 240 244 248 251 253 255 258 259 258 259 260 261 263 266 267 266 263 263 263 264 263 263 262 263 265 267 269 270 271 271 270
224 225 225 225 227 228 227 230 235 237 239 243 245 247 250 253 257 259 260 260 260 260 260 261 262 265 266 266 267 268 269 268 267 266 267 268 270 271 272 272 272 271
224 225 226 227 227 226 226 229 235 239 244 248 249 250 252 254 256 256 257 260 262 261 260 260 260 262 265 266 267 268 268 268 269 269 270 270 271 272 272 273 273 272
225 224 225 229 231 229 227 229 232 236 243 249 252 253 254 255 256 256 257 259 261 261 260 260 260 261 262 263 264 265 265 266 267 267 269 270 270 271 272 272 272 271
226 225 224 227 232 234 234 237 240 240 241 245 251 254 255 256 258 260 261 261 261 261 260 259 258 258 259 259 261 262 263 264 265 267 269 269 269 269 270 271 271 270
227 229 228 228 233 238 239 240 243 245 243 244 248 253 255 257 258 259 261 261 260 259 258 257 256 256 257 258 260 261 263 265 266 268 269 269 269 270 270 269 269 269
228 231 233 231 233 240 242 239 240 242 243 243 246 250 254 256 256 256 257 257 256 255 255 255 255 255 256 258 262 265 267 268 269 269 269 269 269 270 270 270 271 271
230 232 236 236 235 240 245 244 241 239 239 241 244 248 251 253 253 253 253 253 253 254 255 254 254 256 259 261 264 267 269 270 271 271 271 271 270 269 269 270 271 272
Height
10643 10645 10647 10649 10651 10655 10659 10660 10663 10665 10665 10666 10668 10668 10669 10670 10670 10671 10671 10673 10675 10677 10679 10681 10681 10682 10683 10684 10685 10686 10686 10686 10687 10687 10686 10687 10688 10688 10688 10688 10688 10687
10639 10640 10641 10643 10646 10650 10653 10654 10657 10658 10658 10661 10662 10664 10665 10666 10667 10667 10666 10668 10671 10673 10674 10676 10676 10677 10678 10680 10681 10682 10682 10682 10683 10682 10681 10681 10683 10684 10684 10684 10683 10683
10632 10634 10636 10638 10641 10645 10647 10648 10651 10653 10654 10655 10657 10659 10661 10662 10663 10663 10663 10664 10666 10667 10669 10671 10672 10672 10673 10675 10676 10677 10678 10678 10679 10679 10679 10678 10678 10680 10680 10679 10679 10679
10625 10629 10631 10634 10636 10639 10642 10644 10646 10649 10650 10651 10653 10656 10657 10658 10659 10659 10659 10660 10661 10663 10665 10666 10667 10668 10669 10670 10672 10673 10674 10675 10675 10676 10677 10675 10675 10676 10676 10676 10675 10674
10620 10625 10627 10630 10631 10634 10638 10639 10642 10644 10645 10647 10648 10650 10652 10653 10654 10654 10654 10656 10657 10659 10660 10661 10663 10664 10665 10667 10668 10669 10670 10671 10671 10671 10672 10672 10672 10672 10672 10672 10671 10669
10618 10621 10623 10625 10626 10629 10632 10634 10637 10640 10641 10642 10643 10645 10646 10648 10649 10649 10650 10651 10652 10653 10655 10657 10658 10659 10660 10662 10664 10664 10665 10666 10667 10667 10668 10668 10668 10668 10668 10667 10666 10665
10617 10619 10620 10620 10621 10624 10627 10629 10632 10635 10636 10636 10638 10640 10642 10643 10644 10644 10645 10646 10648 10649 10651 10653 10654 10655 10656 10657 10658 10659 10661 10661 10662 10663 10663 10663 10663 10663 10663 10663 10662 10661
10615 10616 10616 10617 10619 10622 10624 10625 10628 10630 10631 10631 10633 10636 10637 10638 10639 10638 10638 10640 10643 10646 10647 10648 10649 10650 10650 10651 10652 10654 10656 10657 10657 10658 10658 10658 10658 10658 10658 10658 10657 10656
10611 10613 10614 10616 10618 10620 10622 10623 10625 10626 10627 10627 10629 10631 10632 10633 10633 10633 10634 10635 10638 10640 10642 10643 10643 10644 10646 10647 10648 10649 10651 10652 10652 10652 10653 10653 10653 10653 10652 10652 10652 10651
10606 10609 10611 10614 10617 10619 10620 10621 10622 10622 10623 10624 10625 10626 10627 10627 10628 10628 10629 10631 10633 10635 10637 10638 10638 10639 10641 10642 10643 10645 10646 10647 10647 10647 10647 10648 10648 10647 10647 10646 10646 10646
10599 10601 10606 10610 10613 10615 10617 10618 10618 10617 10618 10619 10620 10621 10622 10622 10622 10623 10625 10626 10628 10630 10632 10633 10633 10634 10635 10637 10638 10639 10640 10641 10642 10642 10642 10642 10642 10642 10642 10641 10641 10641
10592 10595 10599 10602 10604 10606 10608 10611 10612 10610 10611 10613 10615 10617 10618 10617 10618 10619 10620 10620 10622 10624 10626 10627 10627 10628 10630 10631 10633 10634 10635 10635 10636 10636 10636 10636 10636 10636 10636 10636 10636 10637
10587 10591 10594 10596 10598 10599 10601 10602 10603 10602 10604 10607 10609 10613 10614 10613 10615 10615 10614 10614 10617 10618 10619 10621 10622 10624 10625 10626 10627 10628 10629 10630 10630 10630 10630 10631 10631 10631 10631 10631 10632 10632
10583 10586 10589 10591 10594 10595 10596 10596 10596 10595 10598 10601 10603 10606 10608 10609 10610 10610 10609 10609 10611 10613 10615 10616 10618 10619 10620 10621 10622 10622 10623 10624 10625 10625 10625 10625 10625 10626 10626 10627 10627 10627
10577 10580 10583 10585 10587 10589 10590 10591 10591 10591 10593 10595 10597 10600 10602 10603 10603 10603 10604 10605 10606 10608 10609 10611 10613 10615 10615 10616 10616 10617 10618 10619 10619 10619 10619 10619 10620 10620 10621 10622 10623 10623
10572 10575 10577 10580 10581 10583 10585 10587 10588 10589 10589 10591 10593 10594 10595 10596 10596 10597 10599 10601 10601 10602 10604 10606 10608 10609 10610 10610 10611 10611 10612 10613 10614 10614 10614 10614 10615 10615 10616 10617 10618 10618
10567 10570 10572 10574 10577 10579 10582 10585 10585 10585 10585 10587 10588 10588 10589 10590 10590 10591 10594 10595 10597 10598 10599 10602 10603 10603 10604 10605 10605 10606 10607 10608 10608 10608 10609 10610 10610 10611 10612 10613 10613 10613
10563 10566 10567 10569 10572 10576 10580 10582 10581 10581 10582 10583 10583 10584 10584 10585 10585 10586 10589 10590 10592 10594 10596 10597 10598 10598 10598 10599 10600 10601 10602 10602 10603 10603 10603 10604 10605 10606 10607 10607 10608 10608
10559 10562 10563 10565 10567 10571 10575 10575 10573 10574 10576 10577 10578 10578 10579 10579 10580 10581 10583 10585 10587 10590 10592 10593 10593 10593 10593 10593 10594 10596 10596 10597 10597 10598 10598 10599 10600 10601 10601 10602 10603 10604
10555 10557 10559 10560 10563 10567 10569 10567 10566 10568 10570 10570 10571 10573 10574 10574 10575 10575 10577 10579 10582 10585 10586 10587 10587 10587 10587 10587 10589 10590 10591 10591 10591 10592 10592 10593 10594 10595 10595 10596 10597 10598
10550 10552 10554 10556 10558 10562 10562 10560 10560 10562 10564 10564 10564 10566 10568 10569 10569 10570 10572 10574 10577 10579 10580 10581 10581 10581 10581 10581 10583 10584 10584 10585 10585 10586 10586 10586 10587 10588 10589 10590 10591 10591
10545 10548 10550 10552 10554 10556 10555 10554 10555 10557 10559 10559 10558 10560 10563 10563 10562 10563 10566 10568 10571 10572 10573 10574 10574 10574 10574 10575 10577 10577 10578 10578 10579 10579 10579 10580 10580 10581 10582 10583 10584 10584
10540 10542 10545 10547 10550 10551 10551 10551 10552 10554 10555 10554 10553 10554 10557 10557 10556 10556 10558 10561 10564 10565 10566 10567 10567 10567 10568 10569 10570 10571 10571 10572 10572 10572 10573 10573 10573 10574 10574 10575 10576 10577
10534 10536 10539 10542 10545 10546 10546 10547 10548 10549 10549 10549 10548 10549 10550 10550 10549 10549 10550 10553 10557 10558 10559 10560 10560 10560 10562 10562 10563 10564 10564 10565 10565 10566 10566 10566 10565 10566 10567 10567 10568 10569
10527 10530 10532 10536 10539 10540 10540 10541 10543 10543 10544 10544 10543 10544 10545 10543 10542 10543 10544 10546 10549 10551 10552 10553 10553 10554 10556 10556 10556 10556 10556 10556 10557 10557 10558 10559 10559 10559 10559 10559 10560 10561
10520 10523 10525 10529 10532 10534 10534 10534 10537 10538 10538 10538 10538 10539 10540 10538 10535 10536 10538 10540 10541 10543 10544 10545 10545 10546 10548 10549 10549 10549 10549 10548 10548 10549 10550 10551 10552 10552 10552 10552 10552 10552